Time,TemperatureF,DewpointF,PressureIn,WindDirection,WindDirectionDegrees,WindSpeedMPH,WindSpeedGustMPH,Humidity,HourlyPrecipIn,Conditions,Clouds,dailyrainin,SoftwareType,DateUTC
2013-07-10 00:00:00,55.9,48.4,29.61,SW,215,3.0,10.0,76,0.00,,,0.00,Weather View 32 v70,2013-07-10 08:00:00,
2013-07-10 00:01:00,55.7,48.2,29.61,West,267,6.0,10.0,76,0.00,,,0.00,Weather View 32 v70,2013-07-10 08:01:00,
2013-07-10 00:06:00,55.5,48.4,29.61,SW,222,5.0,10.0,77,0.00,,,0.00,Weather View 32 v70,2013-07-10 08:06:00,
2013-07-10 00:11:00,55.4,48.3,29.61,WSW,239,5.0,10.0,77,0.00,,,0.00,Weather View 32 v70,2013-07-10 08:11:00,
2013-07-10 00:16:00,55.3,48.5,29.61,SW,218,3.0,10.0,78,0.00,,,0.00,Weather View 32 v70,2013-07-10 08:16:00,
2013-07-10 00:21:00,55.2,48.4,29.61,SW,230,4.0,10.0,78,0.00,,,0.00,Weather View 32 v70,2013-07-10 08:21:00,
2013-07-10 00:26:00,55.0,48.3,29.61,WSW,241,4.0,10.0,78,0.00,,,0.00,Weather View 32 v70,2013-07-10 08:26:00,
2013-07-10 00:31:00,55.0,48.3,29.61,SW,231,7.0,11.0,78,0.00,,,0.00,Weather View 32 v70,2013-07-10 08:31:00,
2013-07-10 00:36:00,54.9,48.2,29.61,SW,222,7.0,11.0,78,0.00,,,0.00,Weather View 32 v70,2013-07-10 08:36:00,
2013-07-10 00:41:00,54.7,48.3,29.61,SW,233,3.0,11.0,79,0.00,,,0.00,Weather View 32 v70,2013-07-10 08:41:00,
2013-07-10 00:46:00,54.6,48.5,29.61,SSW,211,1.0,11.0,80,0.00,,,0.00,Weather View 32 v70,2013-07-10 08:46:00,
2013-07-10 00:51:00,54.5,48.4,29.62,SW,236,4.0,11.0,80,0.00,,,0.00,Weather View 32 v70,2013-07-10 08:51:00,
2013-07-10 00:56:00,54.4,48.3,29.62,WSW,240,2.0,11.0,80,0.00,,,0.00,Weather View 32 v70,2013-07-10 08:56:00,
2013-07-10 01:00:00,54.5,48.4,29.61,WSW,240,3.0,11.0,80,0.00,,,0.00,Weather View 32 v70,2013-07-10 09:00:00,
2013-07-10 01:01:00,54.4,48.7,29.62,WSW,243,1.0,11.0,81,0.00,,,0.00,Weather View 32 v70,2013-07-10 09:01:00,
2013-07-10 01:06:00,54.3,48.6,29.62,SW,236,2.0,11.0,81,0.00,,,0.00,Weather View 32 v70,2013-07-10 09:06:00,
2013-07-10 01:11:00,54.2,48.5,29.62,WSW,248,2.0,11.0,81,0.00,,,0.00,Weather View 32 v70,2013-07-10 09:11:00,
2013-07-10 01:16:00,54.2,48.5,29.62,WSW,243,2.0,11.0,81,0.00,,,0.00,Weather View 32 v70,2013-07-10 09:16:00,
2013-07-10 01:21:00,54.1,48.7,29.62,WSW,241,1.0,11.0,82,0.00,,,0.00,Weather View 32 v70,2013-07-10 09:21:00,
2013-07-10 01:26:00,54.1,48.4,29.63,SW,230,1.0,11.0,81,0.00,,,0.00,Weather View 32 v70,2013-07-10 09:26:00,
2013-07-10 01:31:00,54.1,48.4,29.62,WSW,253,4.0,9.0,81,0.00,,,0.00,Weather View 32 v70,2013-07-10 09:31:00,
2013-07-10 01:36:00,54.0,48.6,29.62,SW,228,6.0,10.0,82,0.00,,,0.00,Weather View 32 v70,2013-07-10 09:36:00,
2013-07-10 01:41:00,54.0,48.3,29.62,WSW,238,5.0,10.0,81,0.00,,,0.00,Weather View 32 v70,2013-07-10 09:41:00,
2013-07-10 01:46:00,53.9,48.5,29.62,SW,220,5.0,10.0,82,0.00,,,0.00,Weather View 32 v70,2013-07-10 09:46:00,
2013-07-10 01:51:00,53.9,48.5,29.63,SSW,212,2.0,12.0,82,0.00,,,0.00,Weather View 32 v70,2013-07-10 09:51:00,
2013-07-10 01:56:00,53.8,48.4,29.63,SW,218,3.0,12.0,82,0.00,,,0.00,Weather View 32 v70,2013-07-10 09:56:00,
2013-07-10 02:00:00,53.9,48.5,29.63,SW,218,4.0,12.0,82,0.00,,,0.00,Weather View 32 v70,2013-07-10 10:00:00,
2013-07-10 02:01:00,53.8,48.4,29.63,SW,230,1.0,12.0,82,0.00,,,0.00,Weather View 32 v70,2013-07-10 10:01:00,
2013-07-10 02:06:00,53.8,48.4,29.63,SW,230,3.0,12.0,82,0.00,,,0.00,Weather View 32 v70,2013-07-10 10:06:00,
2013-07-10 02:11:00,53.8,48.4,29.62,WSW,240,3.0,12.0,82,0.00,,,0.00,Weather View 32 v70,2013-07-10 10:11:00,
2013-07-10 02:16:00,53.7,48.6,29.62,SW,215,2.0,12.0,83,0.00,,,0.00,Weather View 32 v70,2013-07-10 10:16:00,
2013-07-10 02:21:00,53.6,48.6,29.63,SSW,209,2.0,12.0,83,0.00,,,0.00,Weather View 32 v70,2013-07-10 10:21:00,
2013-07-10 02:26:00,53.5,48.5,29.62,SW,220,3.0,12.0,83,0.00,,,0.00,Weather View 32 v70,2013-07-10 10:26:00,
2013-07-10 02:31:00,53.4,48.7,29.62,SW,228,3.0,12.0,84,0.00,,,0.00,Weather View 32 v70,2013-07-10 10:31:00,
2013-07-10 02:36:00,53.4,48.7,29.62,SW,221,4.0,12.0,84,0.00,,,0.00,Weather View 32 v70,2013-07-10 10:36:00,
2013-07-10 02:41:00,53.3,48.6,29.62,SW,230,4.0,12.0,84,0.00,,,0.00,Weather View 32 v70,2013-07-10 10:41:00,
2013-07-10 02:46:00,53.2,48.8,29.62,SW,232,4.0,12.0,85,0.00,,,0.00,Weather View 32 v70,2013-07-10 10:46:00,
2013-07-10 02:51:00,53.2,48.8,29.62,SW,224,3.0,10.0,85,0.00,,,0.00,Weather View 32 v70,2013-07-10 10:51:00,
2013-07-10 02:56:00,53.1,48.7,29.62,West,268,3.0,10.0,85,0.00,,,0.00,Weather View 32 v70,2013-07-10 10:56:00,
2013-07-10 03:00:00,53.1,48.7,29.62,SW,225,4.0,10.0,85,0.00,,,0.00,Weather View 32 v70,2013-07-10 11:00:00,
2013-07-10 03:01:00,53.0,48.6,29.62,SW,221,2.0,10.0,85,0.00,,,0.00,Weather View 32 v70,2013-07-10 11:01:00,
2013-07-10 03:06:00,53.0,48.9,29.62,SW,228,1.0,10.0,86,0.00,,,0.00,Weather View 32 v70,2013-07-10 11:06:00,
2013-07-10 03:11:00,52.9,48.8,29.62,SW,226,3.0,10.0,86,0.00,,,0.00,Weather View 32 v70,2013-07-10 11:11:00,
2013-07-10 03:16:00,52.8,48.7,29.62,WSW,237,2.0,10.0,86,0.00,,,0.00,Weather View 32 v70,2013-07-10 11:16:00,
2013-07-10 03:21:00,52.8,48.7,29.62,SSW,207,3.0,10.0,86,0.00,,,0.00,Weather View 32 v70,2013-07-10 11:21:00,
2013-07-10 03:26:00,52.7,48.9,29.62,SW,235,1.0,10.0,87,0.00,,,0.00,Weather View 32 v70,2013-07-10 11:26:00,
2013-07-10 03:30:00,52.7,48.9,29.62,SW,228,5.0,10.0,87,0.00,,,0.00,Weather View 32 v70,2013-07-10 11:30:00,
2013-07-10 03:31:00,52.7,48.9,29.62,SW,225,4.0,10.0,87,0.00,,,0.00,Weather View 32 v70,2013-07-10 11:31:00,
2013-07-10 03:36:00,52.6,48.8,29.62,SW,235,2.0,10.0,87,0.00,,,0.00,Weather View 32 v70,2013-07-10 11:36:00,
2013-07-10 03:41:00,52.6,48.8,29.62,SW,229,3.0,10.0,87,0.00,,,0.00,Weather View 32 v70,2013-07-10 11:41:00,
2013-07-10 03:50:00,52.5,48.7,29.62,South,179,2.0,10.0,87,0.00,,,0.00,Weather View 32 v70,2013-07-10 11:50:00,
2013-07-10 03:55:00,52.5,48.7,29.61,SW,223,6.0,10.0,87,0.00,,,0.00,Weather View 32 v70,2013-07-10 11:55:00,
2013-07-10 04:00:00,52.5,49.0,29.62,SW,227,1.0,10.0,88,0.00,,,0.00,Weather View 32 v70,2013-07-10 12:00:00,
2013-07-10 04:05:00,52.5,49.0,29.62,SW,217,5.0,10.0,88,0.00,,,0.00,Weather View 32 v70,2013-07-10 12:05:00,
2013-07-10 04:10:00,52.5,49.0,29.62,SSW,208,5.0,10.0,88,0.00,,,0.00,Weather View 32 v70,2013-07-10 12:10:00,
2013-07-10 04:15:00,52.4,48.9,29.62,SW,234,6.0,10.0,88,0.00,,,0.00,Weather View 32 v70,2013-07-10 12:15:00,
2013-07-10 04:20:00,52.4,48.9,29.62,SW,225,4.0,10.0,88,0.00,,,0.00,Weather View 32 v70,2013-07-10 12:20:00,
2013-07-10 04:25:00,52.4,49.2,29.62,SW,228,1.0,12.0,89,0.00,,,0.00,Weather View 32 v70,2013-07-10 12:25:00,
2013-07-10 04:30:00,52.3,49.1,29.62,SW,228,3.0,12.0,89,0.00,,,0.00,Weather View 32 v70,2013-07-10 12:30:00,
2013-07-10 04:35:00,52.2,49.0,29.62,SW,226,2.0,12.0,89,0.00,,,0.00,Weather View 32 v70,2013-07-10 12:35:00,
2013-07-10 04:40:00,52.1,49.2,29.62,SSW,196,2.0,12.0,90,0.01,,,0.01,Weather View 32 v70,2013-07-10 12:40:00,
2013-07-10 04:45:00,52.0,49.2,29.62,SW,225,2.0,12.0,90,0.01,,,0.01,Weather View 32 v70,2013-07-10 12:45:00,
2013-07-10 04:50:00,51.9,49.3,29.62,SW,214,1.0,12.0,91,0.01,,,0.01,Weather View 32 v70,2013-07-10 12:50:00,
2013-07-10 04:55:00,51.8,49.3,29.62,SW,217,2.0,12.0,91,0.01,,,0.02,Weather View 32 v70,2013-07-10 12:55:00,
2013-07-10 05:00:00,51.8,49.3,29.62,SW,217,3.0,12.0,91,0.02,,,0.02,Weather View 32 v70,2013-07-10 13:00:00,
2013-07-10 05:05:00,51.7,49.4,29.62,SW,224,4.0,12.0,92,0.02,,,0.02,Weather View 32 v70,2013-07-10 13:05:00,
2013-07-10 05:10:00,51.7,49.4,29.62,WSW,258,3.0,12.0,92,0.02,,,0.02,Weather View 32 v70,2013-07-10 13:10:00,
2013-07-10 05:15:00,51.7,49.4,29.62,SW,225,5.0,12.0,92,0.03,,,0.03,Weather View 32 v70,2013-07-10 13:15:00,
2013-07-10 05:20:00,51.6,49.3,29.62,SW,235,1.0,12.0,92,0.03,,,0.03,Weather View 32 v70,2013-07-10 13:20:00,
2013-07-10 05:25:00,51.6,49.6,29.62,SW,235,4.0,10.0,93,0.03,,,0.03,Weather View 32 v70,2013-07-10 13:25:00,
2013-07-10 05:30:00,51.6,49.6,29.62,WSW,246,4.0,8.0,93,0.04,,,0.04,Weather View 32 v70,2013-07-10 13:30:00,
2013-07-10 05:35:00,51.6,49.6,29.62,WSW,252,5.0,8.0,93,0.04,,,0.04,Weather View 32 v70,2013-07-10 13:35:00,
2013-07-10 05:40:00,51.5,49.5,29.62,SW,222,5.0,8.0,93,0.04,,,0.05,Weather View 32 v70,2013-07-10 13:40:00,
2013-07-10 05:45:00,51.5,49.5,29.62,SW,233,2.0,8.0,93,0.04,,,0.05,Weather View 32 v70,2013-07-10 13:45:00,
2013-07-10 05:50:00,51.5,49.5,29.61,WSW,245,4.0,8.0,93,0.04,,,0.05,Weather View 32 v70,2013-07-10 13:50:00,
2013-07-10 05:55:00,51.5,49.5,29.61,SW,234,2.0,8.0,93,0.04,,,0.06,Weather View 32 v70,2013-07-10 13:55:00,
2013-07-10 06:00:00,51.5,49.5,29.61,SW,233,4.0,8.0,93,0.04,,,0.06,Weather View 32 v70,2013-07-10 14:00:00,
2013-07-10 06:05:00,51.5,49.8,29.61,SW,230,3.0,8.0,94,0.04,,,0.06,Weather View 32 v70,2013-07-10 14:05:00,
2013-07-10 06:10:00,51.5,49.8,29.61,SW,227,3.0,8.0,94,0.05,,,0.07,Weather View 32 v70,2013-07-10 14:10:00,
2013-07-10 06:15:00,51.4,49.4,29.61,West,269,3.0,8.0,93,0.04,,,0.08,Weather View 32 v70,2013-07-10 14:15:00,
2013-07-10 06:20:00,51.4,49.7,29.61,SSW,208,3.0,8.0,94,0.05,,,0.08,Weather View 32 v70,2013-07-10 14:20:00,
2013-07-10 06:25:00,51.5,49.5,29.61,WSW,238,1.0,8.0,93,0.05,,,0.08,Weather View 32 v70,2013-07-10 14:25:00,
2013-07-10 06:30:00,51.5,49.8,29.61,WSW,237,2.0,8.0,94,0.05,,,0.09,Weather View 32 v70,2013-07-10 14:30:00,
2013-07-10 06:35:00,51.5,49.8,29.61,SW,235,2.0,8.0,94,0.05,,,0.09,Weather View 32 v70,2013-07-10 14:35:00,
2013-07-10 06:40:00,51.5,49.5,29.61,SW,235,1.0,8.0,93,0.05,,,0.10,Weather View 32 v70,2013-07-10 14:40:00,
2013-07-10 06:45:00,51.5,49.8,29.61,SW,221,5.0,8.0,94,0.05,,,0.10,Weather View 32 v70,2013-07-10 14:45:00,
2013-07-10 06:50:00,51.5,49.8,29.61,SW,224,5.0,8.0,94,0.06,,,0.11,Weather View 32 v70,2013-07-10 14:50:00,
2013-07-10 06:55:00,51.5,49.8,29.60,WSW,239,6.0,8.0,94,0.06,,,0.12,Weather View 32 v70,2013-07-10 14:55:00,
2013-07-10 07:00:00,51.5,49.8,29.60,SW,217,1.0,8.0,94,0.08,,,0.14,Weather View 32 v70,2013-07-10 15:00:00,
2013-07-10 07:05:00,51.5,49.8,29.60,SW,234,1.0,9.0,94,0.09,,,0.15,Weather View 32 v70,2013-07-10 15:05:00,
2013-07-10 07:10:00,51.5,49.8,29.60,SW,222,3.0,9.0,94,0.09,,,0.16,Weather View 32 v70,2013-07-10 15:10:00,
2013-07-10 07:15:00,51.6,49.9,29.60,WSW,251,3.0,9.0,94,0.08,,,0.16,Weather View 32 v70,2013-07-10 15:15:00,
2013-07-10 07:20:00,51.6,49.9,29.60,WSW,253,3.0,9.0,94,0.08,,,0.16,Weather View 32 v70,2013-07-10 15:20:00,
2013-07-10 07:25:00,51.6,49.9,29.60,SW,223,3.0,9.0,94,0.09,,,0.17,Weather View 32 v70,2013-07-10 15:25:00,
2013-07-10 07:30:00,51.7,50.0,29.60,SW,232,1.0,9.0,94,0.08,,,0.17,Weather View 32 v70,2013-07-10 15:30:00,
2013-07-10 07:35:00,51.7,50.0,29.60,SW,229,2.0,9.0,94,0.08,,,0.18,Weather View 32 v70,2013-07-10 15:35:00,
2013-07-10 07:40:00,51.7,50.0,29.60,SW,221,3.0,9.0,94,0.08,,,0.18,Weather View 32 v70,2013-07-10 15:40:00,
2013-07-10 07:45:00,51.8,50.1,29.60,SW,231,5.0,9.0,94,0.08,,,0.19,Weather View 32 v70,2013-07-10 15:45:00,
2013-07-10 07:49:00,51.8,50.1,29.59,SW,235,2.0,9.0,94,0.08,,,0.19,Weather View 32 v70,2013-07-10 15:49:00,
2013-07-10 07:54:00,51.9,50.2,29.59,SW,235,7.0,9.0,94,0.08,,,0.20,Weather View 32 v70,2013-07-10 15:54:00,
2013-07-10 07:59:00,52.0,50.3,29.59,WSW,248,3.0,9.0,94,0.07,,,0.21,Weather View 32 v70,2013-07-10 15:59:00,
2013-07-10 08:04:00,52.1,50.4,29.59,SSW,204,3.0,12.0,94,0.06,,,0.21,Weather View 32 v70,2013-07-10 16:04:00,
2013-07-10 08:09:00,52.2,50.5,29.59,SSW,207,6.0,12.0,94,0.05,,,0.21,Weather View 32 v70,2013-07-10 16:09:00,
2013-07-10 08:14:00,52.2,50.5,29.59,SW,217,4.0,12.0,94,0.05,,,0.22,Weather View 32 v70,2013-07-10 16:14:00,
2013-07-10 08:19:00,52.3,50.6,29.59,WSW,239,0.0,12.0,94,0.06,,,0.22,Weather View 32 v70,2013-07-10 16:19:00,
2013-07-10 08:24:00,52.3,50.6,29.59,SW,234,4.0,12.0,94,0.05,,,0.22,Weather View 32 v70,2013-07-10 16:24:00,
2013-07-10 08:29:00,52.4,50.7,29.59,SW,230,7.0,12.0,94,0.05,,,0.22,Weather View 32 v70,2013-07-10 16:29:00,
2013-07-10 08:30:00,52.3,50.6,29.59,SW,228,10.0,12.0,94,0.05,,,0.22,Weather View 32 v70,2013-07-10 16:30:00,
2013-07-10 08:34:00,52.5,50.8,29.59,SW,236,6.0,12.0,94,0.05,,,0.22,Weather View 32 v70,2013-07-10 16:34:00,
2013-07-10 08:39:00,52.5,50.8,29.59,WSW,246,3.0,12.0,94,0.04,,,0.22,Weather View 32 v70,2013-07-10 16:39:00,
2013-07-10 08:44:00,52.5,50.8,29.60,SW,215,3.0,12.0,94,0.04,,,0.22,Weather View 32 v70,2013-07-10 16:44:00,
2013-07-10 08:49:00,52.6,50.9,29.60,SSW,213,4.0,12.0,94,0.03,,,0.22,Weather View 32 v70,2013-07-10 16:49:00,
2013-07-10 08:54:00,52.6,50.9,29.60,SW,235,6.0,12.0,94,0.02,,,0.22,Weather View 32 v70,2013-07-10 16:54:00,
2013-07-10 08:59:00,52.6,50.9,29.59,SSW,213,5.0,12.0,94,0.02,,,0.23,Weather View 32 v70,2013-07-10 16:59:00,
2013-07-10 09:04:00,52.7,51.0,29.60,SW,228,3.0,12.0,94,0.02,,,0.23,Weather View 32 v70,2013-07-10 17:04:00,
2013-07-10 09:09:00,52.8,51.1,29.60,WSW,254,2.0,11.0,94,0.02,,,0.23,Weather View 32 v70,2013-07-10 17:09:00,
2013-07-10 09:14:00,52.9,51.5,29.60,SW,230,3.0,11.0,95,0.02,,,0.23,Weather View 32 v70,2013-07-10 17:14:00,
2013-07-10 09:19:00,52.9,51.2,29.60,West,279,3.0,11.0,94,0.02,,,0.25,Weather View 32 v70,2013-07-10 17:19:00,
2013-07-10 09:24:00,51.6,49.6,29.60,SW,230,2.0,11.0,93,0.04,,,0.26,Weather View 32 v70,2013-07-10 17:24:00,
2013-07-10 09:29:00,50.8,48.6,29.60,SW,229,3.0,11.0,92,0.04,,,0.26,Weather View 32 v70,2013-07-10 17:29:00,
2013-07-10 09:30:00,51.3,49.0,29.60,SW,229,3.0,11.0,92,0.04,,,0.26,Weather View 32 v70,2013-07-10 17:30:00,
2013-07-10 09:34:00,50.5,48.3,29.60,SW,230,1.0,11.0,92,0.05,,,0.27,Weather View 32 v70,2013-07-10 17:34:00,
2013-07-10 09:39:00,50.5,48.3,29.60,SW,230,4.0,11.0,92,0.05,,,0.27,Weather View 32 v70,2013-07-10 17:39:00,
2013-07-10 09:44:00,50.6,48.4,29.60,SW,232,2.0,11.0,92,0.05,,,0.27,Weather View 32 v70,2013-07-10 17:44:00,
2013-07-10 09:49:00,50.6,48.4,29.60,SW,235,2.0,10.0,92,0.05,,,0.27,Weather View 32 v70,2013-07-10 17:49:00,
2013-07-10 09:54:00,50.7,48.5,29.60,SW,235,1.0,10.0,92,0.05,,,0.27,Weather View 32 v70,2013-07-10 17:54:00,
2013-07-10 09:59:00,50.8,48.8,29.60,SW,235,1.0,9.0,93,0.04,,,0.27,Weather View 32 v70,2013-07-10 17:59:00,
2013-07-10 10:04:00,51.0,49.0,29.60,SW,235,1.0,9.0,93,0.04,,,0.27,Weather View 32 v70,2013-07-10 18:04:00,
2013-07-10 10:09:00,50.9,48.7,29.60,SW,234,4.0,9.0,92,0.04,,,0.27,Weather View 32 v70,2013-07-10 18:09:00,
2013-07-10 10:14:00,50.8,48.6,29.59,SW,234,3.0,9.0,92,0.04,,,0.27,Weather View 32 v70,2013-07-10 18:14:00,
2013-07-10 10:19:00,51.0,48.8,29.59,WSW,240,3.0,9.0,92,0.03,,,0.27,Weather View 32 v70,2013-07-10 18:19:00,
2013-07-10 10:24:00,51.2,49.0,29.60,WSW,253,1.0,8.0,92,0.01,,,0.27,Weather View 32 v70,2013-07-10 18:24:00,
2013-07-10 10:29:00,51.5,49.2,29.60,WSW,254,3.0,6.0,92,0.01,,,0.27,Weather View 32 v70,2013-07-10 18:29:00,
2013-07-10 10:30:00,51.3,49.0,29.60,WSW,254,2.0,6.0,92,0.01,,,0.27,Weather View 32 v70,2013-07-10 18:30:00,
2013-07-10 10:34:00,51.7,48.9,29.60,WSW,247,2.0,7.0,90,0.00,,,0.27,Weather View 32 v70,2013-07-10 18:34:00,
2013-07-10 10:39:00,52.1,49.2,29.60,WSW,252,1.0,7.0,90,0.00,,,0.27,Weather View 32 v70,2013-07-10 18:39:00,
2013-07-10 10:44:00,52.8,49.9,29.60,SW,223,4.0,7.0,90,0.00,,,0.27,Weather View 32 v70,2013-07-10 18:44:00,
2013-07-10 10:49:00,53.5,50.3,29.59,WSW,243,3.0,8.0,89,0.00,,,0.27,Weather View 32 v70,2013-07-10 18:49:00,
2013-07-10 10:54:00,54.0,50.2,29.59,WSW,244,5.0,8.0,87,0.00,,,0.27,Weather View 32 v70,2013-07-10 18:54:00,
2013-07-10 10:59:00,54.3,50.2,29.59,NNW,342,3.0,10.0,86,0.00,,,0.27,Weather View 32 v70,2013-07-10 18:59:00,
2013-07-10 11:04:00,54.7,49.9,29.59,West,263,1.0,12.0,84,0.00,,,0.27,Weather View 32 v70,2013-07-10 19:04:00,
2013-07-10 11:09:00,54.5,49.4,29.59,West,263,1.0,12.0,83,0.00,,,0.27,Weather View 32 v70,2013-07-10 19:09:00,
2013-07-10 11:14:00,54.4,49.7,29.59,NW,311,2.0,12.0,84,0.00,,,0.27,Weather View 32 v70,2013-07-10 19:14:00,
2013-07-10 11:19:00,54.5,50.1,29.59,WNW,303,1.0,12.0,85,0.00,,,0.27,Weather View 32 v70,2013-07-10 19:19:00,
2013-07-10 11:24:00,54.3,49.2,29.59,WSW,253,3.0,12.0,83,0.00,,,0.27,Weather View 32 v70,2013-07-10 19:24:00,
2013-07-10 11:29:00,54.3,48.9,29.59,WSW,244,2.0,12.0,82,0.00,,,0.27,Weather View 32 v70,2013-07-10 19:29:00,
2013-07-10 11:30:00,54.3,49.6,29.59,WSW,253,3.0,12.0,84,0.00,,,0.27,Weather View 32 v70,2013-07-10 19:30:00,
2013-07-10 11:34:00,54.5,49.4,29.59,WSW,241,5.0,12.0,83,0.00,,,0.27,Weather View 32 v70,2013-07-10 19:34:00,
2013-07-10 11:39:00,54.9,49.5,29.59,WSW,256,3.0,12.0,82,0.00,,,0.27,Weather View 32 v70,2013-07-10 19:39:00,
2013-07-10 11:44:00,54.9,49.5,29.59,West,259,3.0,12.0,82,0.00,,,0.27,Weather View 32 v70,2013-07-10 19:44:00,
2013-07-10 11:49:00,55.0,49.3,29.59,West,260,1.0,12.0,81,0.00,,,0.27,Weather View 32 v70,2013-07-10 19:49:00,
2013-07-10 11:54:00,55.2,48.8,29.59,SW,227,6.0,12.0,79,0.00,,,0.27,Weather View 32 v70,2013-07-10 19:54:00,
2013-07-10 11:59:00,55.0,48.6,29.59,WSW,244,2.0,12.0,79,0.00,,,0.27,Weather View 32 v70,2013-07-10 19:59:00,
2013-07-10 12:04:00,54.6,48.5,29.60,WSW,250,2.0,11.0,80,0.00,,,0.27,Weather View 32 v70,2013-07-10 20:04:00,
2013-07-10 12:09:00,54.3,48.2,29.60,WSW,247,3.0,11.0,80,0.00,,,0.27,Weather View 32 v70,2013-07-10 20:09:00,
2013-07-10 12:14:00,54.2,48.5,29.60,WSW,238,2.0,10.0,81,0.00,,,0.27,Weather View 32 v70,2013-07-10 20:14:00,
2013-07-10 12:19:00,54.4,48.7,29.60,WSW,237,2.0,10.0,81,0.00,,,0.27,Weather View 32 v70,2013-07-10 20:19:00,
2013-07-10 12:24:00,55.2,49.1,29.60,WSW,242,5.0,10.0,80,0.00,,,0.27,Weather View 32 v70,2013-07-10 20:24:00,
2013-07-10 12:29:00,55.7,48.9,29.60,SW,225,1.0,10.0,78,0.00,,,0.27,Weather View 32 v70,2013-07-10 20:29:00,
2013-07-10 12:30:00,55.4,49.0,29.59,SW,233,6.0,10.0,79,0.00,,,0.27,Weather View 32 v70,2013-07-10 20:30:00,
2013-07-10 12:34:00,56.3,49.2,29.59,NW,322,4.0,10.0,77,0.00,,,0.27,Weather View 32 v70,2013-07-10 20:34:00,
2013-07-10 12:39:00,56.4,48.2,29.59,WNW,301,1.0,10.0,74,0.00,,,0.27,Weather View 32 v70,2013-07-10 20:39:00,
2013-07-10 12:44:00,56.3,48.5,29.60,WSW,245,0.0,10.0,75,0.00,,,0.27,Weather View 32 v70,2013-07-10 20:44:00,
2013-07-10 12:49:00,56.2,49.1,29.60,WSW,254,4.0,10.0,77,0.00,,,0.27,Weather View 32 v70,2013-07-10 20:49:00,
2013-07-10 12:54:00,56.1,48.3,29.60,WSW,237,1.0,10.0,75,0.00,,,0.27,Weather View 32 v70,2013-07-10 20:54:00,
2013-07-10 12:59:00,55.9,47.7,29.60,WNW,289,3.0,10.0,74,0.00,,,0.27,Weather View 32 v70,2013-07-10 20:59:00,
2013-07-10 13:04:00,55.7,48.2,29.60,WNW,290,1.0,10.0,76,0.00,,,0.27,Weather View 32 v70,2013-07-10 21:04:00,
2013-07-10 13:09:00,55.8,48.0,29.61,West,271,3.0,10.0,75,0.00,,,0.27,Weather View 32 v70,2013-07-10 21:09:00,
2013-07-10 13:14:00,56.0,48.2,29.60,WSW,251,1.0,10.0,75,0.00,,,0.27,Weather View 32 v70,2013-07-10 21:14:00,
2013-07-10 13:19:00,56.1,47.9,29.61,WSW,241,2.0,10.0,74,0.00,,,0.27,Weather View 32 v70,2013-07-10 21:19:00,
2013-07-10 13:24:00,56.4,48.2,29.61,SW,226,2.0,10.0,74,0.00,,,0.27,Weather View 32 v70,2013-07-10 21:24:00,
2013-07-10 13:29:00,56.3,48.1,29.60,SW,233,2.0,10.0,74,0.00,,,0.27,Weather View 32 v70,2013-07-10 21:29:00,
2013-07-10 13:30:00,56.3,47.7,29.61,SW,231,0.0,10.0,73,0.00,,,0.27,Weather View 32 v70,2013-07-10 21:30:00,
2013-07-10 13:34:00,56.0,48.2,29.61,WSW,251,4.0,10.0,75,0.00,,,0.27,Weather View 32 v70,2013-07-10 21:34:00,
2013-07-10 13:39:00,55.7,47.5,29.61,SW,221,1.0,10.0,74,0.00,,,0.27,Weather View 32 v70,2013-07-10 21:39:00,
2013-07-10 13:44:00,55.5,47.3,29.61,WSW,252,0.0,10.0,74,0.00,,,0.27,Weather View 32 v70,2013-07-10 21:44:00,
2013-07-10 13:49:00,55.4,47.6,29.61,SSW,212,1.0,10.0,75,0.00,,,0.27,Weather View 32 v70,2013-07-10 21:49:00,
2013-07-10 13:54:00,55.4,47.9,29.61,WSW,252,5.0,10.0,76,0.00,,,0.27,Weather View 32 v70,2013-07-10 21:54:00,
2013-07-10 13:59:00,55.3,47.5,29.61,SW,233,3.0,10.0,75,0.00,,,0.27,Weather View 32 v70,2013-07-10 21:59:00,
2013-07-10 14:04:00,55.1,47.7,29.61,SW,222,3.0,10.0,76,0.00,,,0.27,Weather View 32 v70,2013-07-10 22:04:00,
2013-07-10 14:09:00,55.1,47.3,29.61,SW,233,4.0,10.0,75,0.00,,,0.27,Weather View 32 v70,2013-07-10 22:09:00,
2013-07-10 14:14:00,55.0,47.2,29.61,SSW,206,5.0,12.0,75,0.00,,,0.27,Weather View 32 v70,2013-07-10 22:14:00,
2013-07-10 14:19:00,55.1,47.3,29.62,SW,227,3.0,12.0,75,0.00,,,0.27,Weather View 32 v70,2013-07-10 22:19:00,
2013-07-10 14:24:00,55.1,47.7,29.61,WSW,252,2.0,12.0,76,0.00,,,0.27,Weather View 32 v70,2013-07-10 22:24:00,
2013-07-10 14:29:00,55.2,47.4,29.62,SSW,205,3.0,12.0,75,0.00,,,0.27,Weather View 32 v70,2013-07-10 22:29:00,
2013-07-10 14:30:00,55.2,47.4,29.61,WSW,255,5.0,12.0,75,0.00,,,0.27,Weather View 32 v70,2013-07-10 22:30:00,
2013-07-10 14:34:00,54.8,47.0,29.62,SW,234,6.0,12.0,75,0.00,,,0.27,Weather View 32 v70,2013-07-10 22:34:00,
2013-07-10 14:39:00,54.5,47.1,29.62,SW,219,3.0,12.0,76,0.00,,,0.27,Weather View 32 v70,2013-07-10 22:39:00,
2013-07-10 14:44:00,54.5,47.4,29.62,SW,220,7.0,12.0,77,0.00,,,0.27,Weather View 32 v70,2013-07-10 22:44:00,
2013-07-10 14:49:00,54.4,47.3,29.62,SW,220,5.0,12.0,77,0.00,,,0.27,Weather View 32 v70,2013-07-10 22:49:00,
2013-07-10 14:54:00,54.2,47.5,29.62,SW,218,5.0,12.0,78,0.00,,,0.27,Weather View 32 v70,2013-07-10 22:54:00,
2013-07-10 14:59:00,54.3,47.9,29.62,SW,226,6.0,12.0,79,0.00,,,0.27,Weather View 32 v70,2013-07-10 22:59:00,
2013-07-10 15:04:00,54.4,48.3,29.62,SW,222,7.0,12.0,80,0.00,,,0.27,Weather View 32 v70,2013-07-10 23:04:00,
2013-07-10 15:09:00,54.3,48.2,29.62,WSW,240,3.0,12.0,80,0.00,,,0.27,Weather View 32 v70,2013-07-10 23:09:00,
2013-07-10 15:14:00,54.4,48.3,29.62,SW,225,4.0,10.0,80,0.00,,,0.27,Weather View 32 v70,2013-07-10 23:14:00,
2013-07-10 15:19:00,54.4,48.3,29.63,WSW,247,3.0,10.0,80,0.00,,,0.27,Weather View 32 v70,2013-07-10 23:19:00,
2013-07-10 15:24:00,54.5,48.4,29.63,SW,236,3.0,10.0,80,0.00,,,0.27,Weather View 32 v70,2013-07-10 23:24:00,
2013-07-10 15:29:00,54.6,48.5,29.62,SW,230,4.0,11.0,80,0.00,,,0.27,Weather View 32 v70,2013-07-10 23:29:00,
2013-07-10 15:30:00,54.7,48.3,29.63,SW,234,4.0,11.0,79,0.00,,,0.27,Weather View 32 v70,2013-07-10 23:30:00,
2013-07-10 15:34:00,54.8,48.7,29.63,SW,226,3.0,11.0,80,0.00,,,0.27,Weather View 32 v70,2013-07-10 23:34:00,
2013-07-10 15:39:00,54.7,48.3,29.63,SW,232,5.0,11.0,79,0.00,,,0.27,Weather View 32 v70,2013-07-10 23:39:00,
2013-07-10 15:44:00,54.8,48.7,29.63,SW,218,3.0,11.0,80,0.00,,,0.27,Weather View 32 v70,2013-07-10 23:44:00,
2013-07-10 15:49:00,54.9,48.5,29.63,SW,236,7.0,11.0,79,0.00,,,0.27,Weather View 32 v70,2013-07-10 23:49:00,
2013-07-10 15:54:00,55.0,48.6,29.63,WSW,246,2.0,11.0,79,0.00,,,0.27,Weather View 32 v70,2013-07-10 23:54:00,
2013-07-10 15:59:00,55.0,48.3,29.63,SW,223,3.0,11.0,78,0.00,,,0.27,Weather View 32 v70,2013-07-10 23:59:00,
2013-07-10 16:04:00,54.9,48.5,29.63,SSW,212,1.0,11.0,79,0.00,,,0.27,Weather View 32 v70,2013-07-11 00:04:00,
2013-07-10 16:09:00,54.9,48.2,29.63,West,271,3.0,11.0,78,0.00,,,0.27,Weather View 32 v70,2013-07-11 00:09:00,
2013-07-10 16:14:00,55.0,48.3,29.63,SW,228,1.0,11.0,78,0.00,,,0.27,Weather View 32 v70,2013-07-11 00:14:00,
2013-07-10 16:19:00,55.2,48.8,29.63,SW,221,2.0,11.0,79,0.00,,,0.27,Weather View 32 v70,2013-07-11 00:19:00,
2013-07-10 16:24:00,55.9,49.1,29.63,SW,221,2.0,11.0,78,0.00,,,0.27,Weather View 32 v70,2013-07-11 00:24:00,
2013-07-10 16:29:00,56.1,49.0,29.63,WSW,241,4.0,10.0,77,0.00,,,0.27,Weather View 32 v70,2013-07-11 00:29:00,
2013-07-10 16:30:00,55.9,49.1,29.63,SW,222,0.0,11.0,78,0.00,,,0.27,Weather View 32 v70,2013-07-11 00:30:00,
2013-07-10 16:34:00,56.2,49.1,29.63,SW,220,2.0,10.0,77,0.00,,,0.27,Weather View 32 v70,2013-07-11 00:34:00,
2013-07-10 16:39:00,56.5,49.0,29.63,WSW,237,1.0,10.0,76,0.00,,,0.27,Weather View 32 v70,2013-07-11 00:39:00,
2013-07-10 16:44:00,56.5,49.4,29.63,SW,231,5.0,10.0,77,0.00,,,0.27,Weather View 32 v70,2013-07-11 00:44:00,
2013-07-10 16:49:00,56.5,49.0,29.63,SW,219,1.0,10.0,76,0.00,,,0.27,Weather View 32 v70,2013-07-11 00:49:00,
2013-07-10 16:54:00,56.5,49.0,29.63,SW,220,3.0,9.0,76,0.00,,,0.27,Weather View 32 v70,2013-07-11 00:54:00,
2013-07-10 16:59:00,56.7,49.2,29.63,SW,236,1.0,9.0,76,0.00,,,0.27,Weather View 32 v70,2013-07-11 00:59:00,
2013-07-10 17:04:00,56.8,48.6,29.63,SW,225,4.0,9.0,74,0.00,,,0.27,Weather View 32 v70,2013-07-11 01:04:00,
2013-07-10 17:09:00,57.0,49.1,29.63,WSW,242,1.0,9.0,75,0.00,,,0.27,Weather View 32 v70,2013-07-11 01:09:00,
2013-07-10 17:14:00,57.8,49.2,29.63,SW,223,2.0,9.0,73,0.00,,,0.27,Weather View 32 v70,2013-07-11 01:14:00,
2013-07-10 17:19:00,58.3,49.7,29.63,WSW,240,6.0,9.0,73,0.00,,,0.27,Weather View 32 v70,2013-07-11 01:19:00,
2013-07-10 17:24:00,58.0,49.4,29.62,SW,229,2.0,9.0,73,0.00,,,0.27,Weather View 32 v70,2013-07-11 01:24:00,
2013-07-10 17:29:00,57.9,49.3,29.63,SW,234,3.0,12.0,73,0.00,,,0.27,Weather View 32 v70,2013-07-11 01:29:00,
2013-07-10 17:30:00,58.0,49.0,29.63,WSW,237,6.0,12.0,72,0.00,,,0.27,Weather View 32 v70,2013-07-11 01:30:00,
2013-07-10 17:34:00,57.8,49.2,29.63,WSW,241,4.0,12.0,73,0.00,,,0.27,Weather View 32 v70,2013-07-11 01:34:00,
2013-07-10 17:39:00,57.7,49.1,29.63,SW,216,6.0,12.0,73,0.00,,,0.27,Weather View 32 v70,2013-07-11 01:39:00,
2013-07-10 17:44:00,57.2,48.6,29.63,SW,235,2.0,12.0,73,0.00,,,0.27,Weather View 32 v70,2013-07-11 01:44:00,
2013-07-10 17:49:00,56.8,48.6,29.63,WSW,238,0.0,12.0,74,0.00,,,0.27,Weather View 32 v70,2013-07-11 01:49:00,
2013-07-10 17:54:00,56.7,48.5,29.63,SW,230,2.0,12.0,74,0.00,,,0.27,Weather View 32 v70,2013-07-11 01:54:00,
2013-07-10 17:59:00,56.6,48.4,29.63,WSW,237,2.0,12.0,74,0.00,,,0.27,Weather View 32 v70,2013-07-11 01:59:00,
2013-07-10 18:04:00,56.5,48.3,29.63,WSW,237,4.0,12.0,74,0.00,,,0.27,Weather View 32 v70,2013-07-11 02:04:00,
2013-07-10 18:09:00,56.4,48.2,29.63,WSW,246,0.0,12.0,74,0.00,,,0.27,Weather View 32 v70,2013-07-11 02:09:00,
2013-07-10 18:14:00,56.5,48.3,29.63,West,264,0.0,12.0,74,0.00,,,0.27,Weather View 32 v70,2013-07-11 02:14:00,
2013-07-10 18:19:00,56.5,48.7,29.63,WSW,240,0.0,12.0,75,0.00,,,0.27,Weather View 32 v70,2013-07-11 02:19:00,
2013-07-10 18:24:00,56.5,48.7,29.63,WSW,246,2.0,12.0,75,0.00,,,0.27,Weather View 32 v70,2013-07-11 02:24:00,
2013-07-10 18:29:00,56.4,48.6,29.63,WSW,239,0.0,8.0,75,0.00,,,0.27,Weather View 32 v70,2013-07-11 02:29:00,
2013-07-10 18:34:00,56.4,48.6,29.64,WSW,237,3.0,8.0,75,0.00,,,0.27,Weather View 32 v70,2013-07-11 02:34:00,
2013-07-10 18:39:00,56.5,48.7,29.63,WSW,239,1.0,8.0,75,0.00,,,0.27,Weather View 32 v70,2013-07-11 02:39:00,
2013-07-10 18:44:00,56.6,48.0,29.63,SW,230,3.0,8.0,73,0.00,,,0.27,Weather View 32 v70,2013-07-11 02:44:00,
2013-07-10 18:49:00,56.6,48.0,29.64,SW,235,4.0,8.0,73,0.00,,,0.27,Weather View 32 v70,2013-07-11 02:49:00,
2013-07-10 18:54:00,56.7,48.1,29.63,SW,224,2.0,8.0,73,0.00,,,0.27,Weather View 32 v70,2013-07-11 02:54:00,
2013-07-10 18:59:00,56.8,48.2,29.64,SW,223,1.0,8.0,73,0.00,,,0.27,Weather View 32 v70,2013-07-11 02:59:00,
2013-07-10 19:04:00,56.9,48.3,29.64,SSW,205,2.0,8.0,73,0.00,,,0.27,Weather View 32 v70,2013-07-11 03:04:00,
2013-07-10 19:09:00,56.8,48.2,29.64,SW,227,0.0,7.0,73,0.00,,,0.27,Weather View 32 v70,2013-07-11 03:09:00,
2013-07-10 19:14:00,56.7,48.1,29.64,WSW,237,1.0,7.0,73,0.00,,,0.27,Weather View 32 v70,2013-07-11 03:14:00,
2013-07-10 19:19:00,56.6,48.0,29.64,SW,227,0.0,7.0,73,0.00,,,0.27,Weather View 32 v70,2013-07-11 03:19:00,
2013-07-10 19:24:00,56.6,48.0,29.64,SW,230,0.0,7.0,73,0.00,,,0.27,Weather View 32 v70,2013-07-11 03:24:00,
2013-07-10 19:29:00,56.6,48.0,29.64,SW,234,0.0,7.0,73,0.00,,,0.27,Weather View 32 v70,2013-07-11 03:29:00,
2013-07-10 19:34:00,56.5,48.7,29.64,SW,235,1.0,7.0,75,0.00,,,0.27,Weather View 32 v70,2013-07-11 03:34:00,
2013-07-10 19:39:00,56.3,48.5,29.64,SW,236,0.0,7.0,75,0.00,,,0.27,Weather View 32 v70,2013-07-11 03:39:00,
2013-07-10 19:44:00,56.2,49.1,29.64,SW,235,0.0,7.0,77,0.00,,,0.27,Weather View 32 v70,2013-07-11 03:44:00,
2013-07-10 19:49:00,56.1,49.0,29.64,SW,235,0.0,7.0,77,0.00,,,0.27,Weather View 32 v70,2013-07-11 03:49:00,
2013-07-10 19:54:00,55.8,48.7,29.64,SW,232,0.0,7.0,77,0.00,,,0.27,Weather View 32 v70,2013-07-11 03:54:00,
2013-07-10 19:59:00,55.6,48.8,29.64,SW,232,0.0,6.0,78,0.00,,,0.27,Weather View 32 v70,2013-07-11 03:59:00,
2013-07-10 20:01:00,55.6,48.8,29.64,SW,231,1.0,6.0,78,0.00,,,0.27,Weather View 32 v70,2013-07-11 04:01:00,
2013-07-10 20:02:00,55.6,49.2,29.65,SW,231,1.0,6.0,79,0.00,,,0.27,Weather View 32 v70,2013-07-11 04:02:00,
2013-07-10 20:07:00,55.4,49.3,29.64,SW,230,0.0,6.0,80,0.00,,,0.27,Weather View 32 v70,2013-07-11 04:07:00,
2013-07-10 20:12:00,55.4,49.3,29.64,SW,229,0.0,6.0,80,0.00,,,0.27,Weather View 32 v70,2013-07-11 04:12:00,
2013-07-10 20:17:00,55.3,48.9,29.65,SW,231,1.0,4.0,79,0.00,,,0.27,Weather View 32 v70,2013-07-11 04:17:00,
2013-07-10 20:22:00,55.2,48.8,29.64,SW,231,1.0,4.0,79,0.00,,,0.27,Weather View 32 v70,2013-07-11 04:22:00,
2013-07-10 20:27:00,55.3,49.2,29.65,SW,231,0.0,4.0,80,0.00,,,0.27,Weather View 32 v70,2013-07-11 04:27:00,
2013-07-10 20:32:00,55.3,49.2,29.65,SW,231,0.0,4.0,80,0.00,,,0.27,Weather View 32 v70,2013-07-11 04:32:00,
2013-07-10 20:37:00,55.2,49.1,29.65,SW,231,0.0,4.0,80,0.00,,,0.27,Weather View 32 v70,2013-07-11 04:37:00,
2013-07-10 20:42:00,55.2,49.1,29.65,SW,231,0.0,4.0,80,0.00,,,0.27,Weather View 32 v70,2013-07-11 04:42:00,
2013-07-10 20:47:00,55.2,49.1,29.65,SW,231,0.0,4.0,80,0.00,,,0.27,Weather View 32 v70,2013-07-11 04:47:00,
2013-07-10 20:52:00,55.1,49.0,29.65,SW,231,0.0,4.0,80,0.00,,,0.27,Weather View 32 v70,2013-07-11 04:52:00,
2013-07-10 20:57:00,55.1,49.4,29.65,SW,231,1.0,4.0,81,0.00,,,0.27,Weather View 32 v70,2013-07-11 04:57:00,
2013-07-10 21:02:00,55.0,49.3,29.65,SW,231,0.0,4.0,81,0.00,,,0.27,Weather View 32 v70,2013-07-11 05:02:00,
2013-07-10 21:07:00,54.9,49.2,29.65,SW,231,0.0,4.0,81,0.00,,,0.27,Weather View 32 v70,2013-07-11 05:07:00,
2013-07-10 21:12:00,54.8,49.4,29.66,SW,231,0.0,4.0,82,0.00,,,0.27,Weather View 32 v70,2013-07-11 05:12:00,
2013-07-10 21:17:00,54.8,49.4,29.65,SW,231,0.0,4.0,82,0.00,,,0.27,Weather View 32 v70,2013-07-11 05:17:00,
2013-07-10 21:22:00,54.7,49.3,29.65,SW,231,0.0,3.0,82,0.00,,,0.27,Weather View 32 v70,2013-07-11 05:22:00,
2013-07-10 21:27:00,54.6,49.5,29.65,SW,231,0.0,3.0,83,0.00,,,0.27,Weather View 32 v70,2013-07-11 05:27:00,
2013-07-10 21:32:00,54.5,49.4,29.65,SW,231,0.0,3.0,83,0.00,,,0.27,Weather View 32 v70,2013-07-11 05:32:00,
2013-07-10 21:37:00,54.4,50.0,29.66,SW,231,0.0,2.0,85,0.00,,,0.27,Weather View 32 v70,2013-07-11 05:37:00,
2013-07-10 21:42:00,54.2,50.1,29.66,SW,231,0.0,2.0,86,0.00,,,0.27,Weather View 32 v70,2013-07-11 05:42:00,
2013-07-10 21:47:00,54.0,50.2,29.65,SW,231,0.0,2.0,87,0.00,,,0.27,Weather View 32 v70,2013-07-11 05:47:00,
2013-07-10 21:52:00,53.8,50.3,29.66,SW,231,0.0,2.0,88,0.01,,,0.28,Weather View 32 v70,2013-07-11 05:52:00,
2013-07-10 21:57:00,53.5,50.0,29.66,SW,231,0.0,2.0,88,-0.25,,,0.28,Weather View 32 v70,2013-07-11 05:57:00,
2013-07-10 22:02:00,53.5,50.3,29.66,SW,231,0.0,1.0,89,-0.25,,,0.28,Weather View 32 v70,2013-07-11 06:02:00,
2013-07-10 22:07:00,53.4,50.5,29.66,SW,231,0.0,1.0,90,0.01,,,0.28,Weather View 32 v70,2013-07-11 06:07:00,
2013-07-10 22:12:00,53.4,50.5,29.66,SW,231,0.0,1.0,90,0.01,,,0.28,Weather View 32 v70,2013-07-11 06:12:00,
2013-07-10 22:17:00,53.3,50.4,29.66,SW,231,0.0,1.0,90,0.01,,,0.28,Weather View 32 v70,2013-07-11 06:17:00,
2013-07-10 22:22:00,53.3,50.7,29.66,SW,231,0.0,0.0,91,0.01,,,0.28,Weather View 32 v70,2013-07-11 06:22:00,
2013-07-10 22:27:00,53.2,50.6,29.66,SW,231,0.0,0.0,91,0.01,,,0.28,Weather View 32 v70,2013-07-11 06:27:00,
2013-07-10 22:32:00,53.1,50.5,29.66,SW,231,0.0,0.0,91,0.01,,,0.28,Weather View 32 v70,2013-07-11 06:32:00,
2013-07-10 22:37:00,53.1,50.5,29.66,SW,231,0.0,0.0,91,0.01,,,0.28,Weather View 32 v70,2013-07-11 06:37:00,
2013-07-10 22:42:00,53.0,50.4,29.66,SW,231,0.0,0.0,91,0.01,,,0.28,Weather View 32 v70,2013-07-11 06:42:00,
2013-07-10 22:47:00,53.0,50.4,29.66,SW,231,0.0,0.0,91,0.01,,,0.28,Weather View 32 v70,2013-07-11 06:47:00,
2013-07-10 22:52:00,53.0,50.4,29.66,SW,231,0.0,0.0,91,0.00,,,0.28,Weather View 32 v70,2013-07-11 06:52:00,
2013-07-10 22:57:00,53.0,50.4,29.66,SW,231,0.0,0.0,91,0.00,,,0.28,Weather View 32 v70,2013-07-11 06:57:00,
2013-07-10 23:02:00,52.9,50.3,29.66,SW,231,0.0,0.0,91,0.00,,,0.28,Weather View 32 v70,2013-07-11 07:02:00,
2013-07-10 23:06:00,52.9,50.3,29.67,SW,231,0.0,0.0,91,0.00,,,0.28,Weather View 32 v70,2013-07-11 07:06:00,
2013-07-10 23:12:00,52.8,50.2,29.67,SW,231,0.0,0.0,91,0.00,,,0.28,Weather View 32 v70,2013-07-11 07:12:00,
2013-07-10 23:17:00,52.7,50.1,29.67,SW,231,0.0,0.0,91,0.00,,,0.28,Weather View 32 v70,2013-07-11 07:17:00,
2013-07-10 23:22:00,52.6,50.0,29.66,SW,231,0.0,0.0,91,0.00,,,0.28,Weather View 32 v70,2013-07-11 07:22:00,
2013-07-10 23:27:00,52.5,49.9,29.67,SW,231,0.0,0.0,91,0.00,,,0.28,Weather View 32 v70,2013-07-11 07:27:00,
2013-07-10 23:32:00,52.5,49.9,29.67,SW,231,0.0,0.0,91,0.00,,,0.28,Weather View 32 v70,2013-07-11 07:32:00,
2013-07-10 23:36:00,52.4,49.8,29.67,SW,231,0.0,0.0,91,0.00,,,0.28,Weather View 32 v70,2013-07-11 07:36:00,
2013-07-10 23:41:00,52.4,49.8,29.67,SW,231,0.0,0.0,91,0.00,,,0.28,Weather View 32 v70,2013-07-11 07:41:00,
2013-07-10 23:46:00,52.3,49.7,29.67,SW,231,0.0,0.0,91,0.00,,,0.28,Weather View 32 v70,2013-07-11 07:46:00,
2013-07-10 23:51:00,52.3,49.7,29.67,SW,231,0.0,0.0,91,0.00,,,0.28,Weather View 32 v70,2013-07-11 07:51:00,
2013-07-10 23:56:00,52.2,49.6,29.67,SW,231,0.0,1.0,91,0.00,,,0.00,Weather View 32 v70,2013-07-11 07:56:00,